TimeMDT,TemperatureF,Dew PointF,Humidity,Sea Level PressureIn,VisibilityMPH,Wind Direction,Wind SpeedMPH,Gust SpeedMPH,PrecipitationIn,Events,Conditions,WindDirDegrees,DateUTC
12:53 AM,39.9,30.9,70,30.01,10.0,Calm,Calm,-,N/A,,Clear,0,2012-11-01 06:53:00
1:53 AM,37.9,30.9,76,30.01,10.0,Calm,Calm,-,N/A,,Clear,0,2012-11-01 07:53:00
2:53 AM,32.0,28.0,85,30.01,10.0,Calm,Calm,-,N/A,,Clear,0,2012-11-01 08:53:00
3:53 AM,32.0,28.0,85,29.98,10.0,East,4.6,-,N/A,,Clear,100,2012-11-01 09:53:00
4:53 AM,34.0,28.9,82,29.97,10.0,Calm,Calm,-,N/A,,Clear,0,2012-11-01 10:53:00
5:53 AM,33.1,28.9,85,29.97,10.0,Calm,Calm,-,N/A,,Clear,0,2012-11-01 11:53:00
6:53 AM,33.1,28.9,85,29.98,10.0,Calm,Calm,-,N/A,,Clear,0,2012-11-01 12:53:00
7:53 AM,32.0,28.0,85,30.00,10.0,Calm,Calm,-,N/A,,Clear,0,2012-11-01 13:53:00
8:53 AM,34.0,30.9,89,30.01,10.0,WNW,3.5,-,N/A,,Clear,290,2012-11-01 14:53:00
9:53 AM,37.9,33.1,83,30.00,10.0,Calm,Calm,-,N/A,,Clear,0,2012-11-01 15:53:00
10:53 AM,42.1,33.1,70,29.98,10.0,Calm,Calm,-,N/A,,Clear,0,2012-11-01 16:53:00
11:53 AM,50.0,35.1,57,29.95,10.0,SSE,3.5,-,N/A,,Clear,160,2012-11-01 17:53:00
1:53 PM,61.0,30.9,32,29.86,10.0,Calm,Calm,-,N/A,,Clear,0,2012-11-01 19:53:00
3:53 PM,63.0,35.1,35,29.84,10.0,SW,3.5,-,N/A,,Clear,220,2012-11-01 21:53:00
4:53 PM,61.0,36.0,39,29.83,10.0,SE,3.5,-,N/A,,Unknown,130,2012-11-01 22:53:00
5:53 PM,57.0,37.9,49,29.83,10.0,SE,6.9,-,N/A,,Clear,140,2012-11-01 23:53:00
6:53 PM,52.0,37.9,59,29.86,10.0,Calm,Calm,-,N/A,,Clear,0,2012-11-02 00:53:00
7:53 PM,54.0,34.0,47,29.86,10.0,West,6.9,-,N/A,,Clear,260,2012-11-02 01:53:00
8:53 PM,54.0,32.0,43,29.85,10.0,West,6.9,-,N/A,,Clear,260,2012-11-02 02:53:00
9:53 PM,52.0,33.1,49,29.85,10.0,WSW,4.6,-,N/A,,Clear,250,2012-11-02 03:53:00
10:53 PM,51.1,32.0,48,29.84,10.0,WSW,5.8,-,N/A,,Clear,250,2012-11-02 04:53:00
11:53 PM,57.0,27.0,32,29.81,10.0,West,10.4,-,N/A,,Clear,270,2012-11-02 05:53:00